Regional Weather Roundup
Issued by NWS

Home | Current Version | Previous Version | Text Only | Print | Product List | Glossary On
Versions: 1 2 3 4 5 6 7 8 9 10 11 12 13 14 15 16 17 18 19 20 21 22 23 24 25 26 27 28 29 30 31 32 33 34 35 36 37 38 39 40 41 42 43 44 45 46 47 48 49 50
000
ASUS43 KDTX 071810
RWRMI
MICHIGAN HOURLY REGIONAL WEATHER ROUNDUP
NATIONAL WEATHER SERVICE DETROIT/PONTIAC MI
100 PM EST SUN FEB 07 2016

NOTE: "FAIR" INDICATES FEW OR NO CLOUDS BELOW 12,000 FEET WITH NO
SIGNIFICANT WEATHER AND/OR OBSTRUCTION TO VISIBILITY.

MIZ047>049-052>055-059>063-066>070-074>076-081>083-071900-
SOUTHEAST LOWER MICHIGAN

CITY           SKY/WX    TMP DP  RH WIND       PRES   REMARKS
ADRIAN         SUNNY     43  31  62 SW18      29.84F
6HR MIN TEMP:  29; 6HR MAX TEMP:  44;

ALMA           CLOUDY    41  32  71 S12       29.74F
ANN ARBOR      SUNNY     43  29  57 S15       29.84F
BAD AXE        CLOUDY    40  32  72 S9        29.80F WCI  34
CARO           CLOUDY    44  30  58 S12G21    29.78F
DETROIT CITY   MOSUNNY   44  29  55 SW12      29.87F
6HR MIN TEMP:  30; 6HR MAX TEMP:  45;

DETROIT        PTSUNNY   47  30  51 S16       29.87F
6HR MIN TEMP:  28; 6HR MAX TEMP:  47;

FLINT          CLOUDY    46  29  51 S12       29.80F
6HR MIN TEMP:  35; 6HR MAX TEMP:  46;

GROSSE ILE     CLOUDY    41  34  75 S10       29.87F
HILLSDALE      CLOUDY    41  30  63 S8G17     29.81F
HOWELL         PTSUNNY   44  30  57 S15G22    29.80F
6HR MIN TEMP:  32; 6HR MAX TEMP:  46;


CITY           SKY/WX    TMP DP  RH WIND       PRES   REMARKS
JACKSON        PTSUNNY   44  28  53 S15G23    29.80F
6HR MIN TEMP:  33; 6HR MAX TEMP:  44;

LAMBERTVILLE   SUNNY     48  30  49 SW9G21    29.87F
6HR MIN TEMP:  32; 6HR MAX TEMP:  48;

LANSING        MOSUNNY   44  30  57 S18G26    29.77F
6HR MIN TEMP:  34; 6HR MAX TEMP:  44;

LAPEER         PTSUNNY   44  31  60 S12G21    29.81F
6HR MIN TEMP:  32; 6HR MAX TEMP:  44;

MASON          CLOUDY    44  30  58 S8G20     29.78F
MONROE         MOSUNNY   47  31  53 SW12G17   29.87F
6HR MIN TEMP:  29; 6HR MAX TEMP:  47;

MT. CLEMENS    PTSUNNY   42  32  68 S13       29.84F
6HR MIN TEMP:  28; 6HR MAX TEMP:  42;

PONTIAC        CLOUDY    45  29  53 S12       29.81F
6HR MIN TEMP:  30; 6HR MAX TEMP:  45;

PORT HOPE        N/A     39  30  70 S10       29.78F WCI  32
6HR MIN TEMP:  33; 6HR MAX TEMP:  39;

PORT HURON     CLOUDY    41  30  65 S13       29.86F
TRI CITIES     CLOUDY    42  30  62 S12       29.77F
6HR MIN TEMP:  35; 6HR MAX TEMP:  42;

MIDLAND        CLOUDY    40  29  64 S6        29.75F
6HR MIN TEMP:  33; 6HR MAX TEMP:  40;

TROY           MOSUNNY   46  29  50 S10G18    29.86F
SAGINAW HB     CLOUDY    43  32  65 S14       29.77F
$$
MIZ043>046-050>051-056>058-064>065-071>073-077>080-071900-
SOUTHWEST LOWER MICHIGAN

CITY           SKY/WX    TMP DP  RH WIND       PRES   REMARKS
BATTLE CREEK   MOSUNNY   44  30  57 S17       29.78F
6HR MIN TEMP:  34; 6HR MAX TEMP:  44;

BENTON HARBOR  CLOUDY    45  30  55 S10       29.77F
6HR MIN TEMP:  37; 6HR MAX TEMP:  46;

BIG RAPIDS     CLOUDY    42  30  63 S14G22    29.68F
6HR MIN TEMP:  33; 6HR MAX TEMP:  42;

COLDWATER      CLOUDY    44  29  57 SW16G28   29.81F
6HR MIN TEMP:  34; 6HR MAX TEMP:  44;

FREMONT        FAIR      40  31  70 SW14G21   29.71F WCI  33
HOLLAND        CLOUDY    42  30  62 SW24G36   29.76F
6HR MIN TEMP:  35; 6HR MAX TEMP:  43;

GRAND RAPIDS   PTSUNNY   44  30  57 SW15      29.75F
6HR MIN TEMP:  34; 6HR MAX TEMP:  44;

IONIA          FAIR      42  29  61 S12       29.73F
6HR MIN TEMP:  33; 6HR MAX TEMP:  42;

KALAMAZOO      CLOUDY    45  29  53 S21G26    29.78F
6HR MIN TEMP:  33; 6HR MAX TEMP:  45;

LUDINGTON      MOSUNNY   39  32  75 S18G25    29.67F WCI  30
6HR MIN TEMP:  37; 6HR MAX TEMP:  40;

MARSHALL       CLOUDY    45  29  54 SW16G26   29.79F
6HR MIN TEMP:  33; 6HR MAX TEMP:  46;

MOUNT PLEASANT CLOUDY    41  30  65 S7        29.73F
MUSKEGON       PTSUNNY   41  31  67 S17G26    29.72F
6HR MIN TEMP:  37; 6HR MAX TEMP:  43;

SOUTH HAVEN    CLOUDY    43  29  56 SW21G30   29.77F
$$
MIZ016>042-071900-
NORTHERN LOWER MICHIGAN

CITY           SKY/WX    TMP DP  RH WIND       PRES   REMARKS
ALPENA         CLOUDY    37  29  72 SE13      29.73F WCI  29
6HR MIN TEMP:  29; 6HR MAX TEMP:  37;

BEAVER ISLAND  CLOUDY    37  33  87 S7        29.62F WCI  31
6HR MIN TEMP:  35; 6HR MAX TEMP:  37;

BELLAIRE       CLOUDY    40  31  71 S10       29.64F WCI  33
6HR MIN TEMP:  36; 6HR MAX TEMP:  40;

CADILLAC       PTSUNNY   40  31  69 S18G24    29.65F WCI  31
CHARLEVOIX     CLOUDY    38  32  78 S7        29.66F WCI  33
6HR MIN TEMP:  33; 6HR MAX TEMP:  38;

FRANKFORT      SUNNY     40  32  71 SW18G33   29.63F WCI  31
GAYLORD        CLOUDY    36  30  79 S13G21    29.65F WCI  27
6HR MIN TEMP:  30; 6HR MAX TEMP:  36; 6HR PCP: TRACE;

GRAYLING       CLOUDY    37  29  73 SE7       29.68F WCI  32
6HR MIN TEMP:  32; 6HR MAX TEMP:  37;

HARBOR SPRINGS CLOUDY    36  33  86 S7        29.66F FOG     WCI  31
HOUGHTON LAKE  CLOUDY    37  29  72 S12       29.70F WCI  29
6HR MIN TEMP:  30; 6HR MAX TEMP:  37;

MANISTEE       MOSUNNY   43  28  56 SW13G23   29.66F
OSCODA         CLOUDY    38  29  70 S14       29.75F WCI  30
6HR MIN TEMP:  32; 6HR MAX TEMP:  38;

PELLSTON       CLOUDY    35  32  88 SE8       29.66F WCI  29
6HR MIN TEMP:  30; 6HR MAX TEMP:  36; 6HR PCP:  0.03;

ROGERS CITY    CLOUDY    35  29  78 S12G18    29.72F WCI  27
TRAVERSE CITY  CLOUDY    43  30  60 S13G21    29.62F
6HR MIN TEMP:  37; 6HR MAX TEMP:  43;

$$
MIZ007>008-015-071900-
EASTERN UPPER MICHIGAN

CITY           SKY/WX    TMP DP  RH WIND       PRES   REMARKS
KINROSS        CLOUDY    34  34 100 SE18      29.65F VSB 3/4 WCI  23
6HR MIN TEMP:  30; 6HR MAX TEMP:  34;

MACKINAC ISLAN LGT SNOW  33  33 100 SE9       29.65F VSB 3/4 WCI  25
6HR MIN TEMP:  30; 6HR MAX TEMP:  34;

NEWBERRY       CLOUDY    33  32  98 SE15G24   29.58F FOG     WCI  22
6HR MIN TEMP:  32; 6HR MAX TEMP:  33;

S. S. MARIE    SNOW      31  29  92 SE9G18    29.66F VSB 1/2 WCI  23
6HR MIN TEMP:  31; 6HR MAX TEMP:  34; 6HR PCP:  0.08;

MUNISING         N/A     36  32  85 S12       29.54F WCI  28
6HR MIN TEMP:  31; 6HR MAX TEMP:  36; 6HR PCP:  0.05;

$$
MIZ004>006-011>014-085-071900-
CENTRAL UPPER MICHIGAN

CITY           SKY/WX    TMP DP  RH WIND       PRES   REMARKS
MANISTIQUE     CLOUDY    37  32  85 S12       29.58F WCI  29
6HR MIN TEMP:  33; 6HR MAX TEMP:  37; 6HR PCP:  0.01;

ESCANABA       CLOUDY    36  32  87 S6        29.57F WCI  31
6HR MIN TEMP:  32; 6HR MAX TEMP:  36;

MENOMINEE      MOSUNNY   39  30  70 SW8       29.57F WCI  34
6HR MIN TEMP:  34; 6HR MAX TEMP:  39;

SAWYER-GWINN   CLOUDY    32  30  93 SW10      29.52F FOG     WCI  24
$$
MIZ001>003-009>011-084-071900-
WESTERN UPPER MICHIGAN

CITY           SKY/WX    TMP DP  RH WIND       PRES   REMARKS
IRON MOUNTAIN  CLOUDY    34  29  82 S6        29.51F HAZE    WCI  29
6HR MIN TEMP:  29; 6HR MAX TEMP:  34; 6HR PCP: TRACE;

HOUGHTON       LGT SNOW  32  29  88 SE5       29.49F FOG     WCI  27
6HR MIN TEMP:  29; 6HR MAX TEMP:  32; 6HR PCP:  0.08;

COPPER HARBOR    N/A     33  31  92 SW6       29.51F WCI  28
6HR MIN TEMP:  32; 6HR MAX TEMP:  33; 6HR PCP:  0.04;

IRONWOOD       CLOUDY    34  30  86 S9        29.44F WCI  26
6HR MIN TEMP:  30; 6HR MAX TEMP:  34;

$$

ABBREVIATIONS USED IN REMARKS
   TC - TEMPERATURE IN CELSIUS
  WCI - WIND CHILL INDEX
   HX - HEAT INDEX
  VSB - VISIBILITY




USA.gov is the U.S. government's official web portal to all federal, state and local government web resources and services.